Flag for Germany Weather past 2 weeks in Ravensburg, Baden-Württemberg, Germany

Now
36 °F

Cloudy.


Feels Like: 33 °F
Forecast: 31 / 36 °F
Wind: 3 mph from North

Location: Friedrichshafen Airport

Current Time: Mar 4, 2015 at 8:46:50 AM

Latest Report: Mar 4, 2015 at 8:20 AM


Visibility: N/A

Pressure: 30.30 "Hg

Humidity: 81%

Dew point: 30 °F

Location of RavensburgLocation

Historic Weather in Ravensburg — Graph

°F

Ravensburg temperature yesterday

Maximum temperature yesterday: 50 °F (at 2:50 PM)
Minimum temperature yesterday: 28 °F (at 6:50 AM)
Average temperature yesterday: 40 °F

Past Weeks' High & Low Weather Summary

 TemperatureHumidityPressure
High52 °F (Feb 20, 4:50 PM)100% (Feb 23, 5:20 AM)30.69 "Hg (Feb 23, 5:20 AM)
Low21 °F (Feb 20, 6:50 AM)29% (Feb 26, 4:50 PM)29.50 "Hg (Feb 21, 12:50 PM)
Average35 °F78%30.04 "Hg
* Reported Feb 17 7:20 AM — Mar 4 7:20 AM, Ravensburg, Weather by CustomWeather, © 2015

Note: Actual official high and low records may vary slightly from our data, if they occured in-between our weather recording intervals... More about our weather records

Advertising

Ravensburg weather history for previous 24 hours

 ConditionsComfort  
Time TempWeatherWind HumidityBarometerVisibility
7:20 AM
Wed, Mar 4
36 °FMostly cloudy.5 mph81%30.30 "HgN/A
6:50 AM36 °FMostly cloudy.3 mph87%30.27 "HgN/A
6:20 AM36 °FOvercast.5 mph81%30.27 "HgN/A
5:50 AM36 °FMostly cloudy.3 mph81%30.27 "HgN/A
5:20 AM36 °FOvercast.5 mph81%30.24 "HgN/A
4:50 AM36 °FOvercast.2 mph81%30.24 "HgN/A
3:55 AM37 °FRain. Mostly cloudy.8 mph81%30.21 "Hg6 mi
3:50 AM39 °FChilly.7 mph81%30.21 "HgN/A
3:20 AM43 °FLight rain. Mostly cloudy.7 mph61%30.18 "HgN/A
3:03 AM43 °FLight rain. Mostly cloudy.6 mph66%30.18 "HgN/A
2:50 AM41 °FDrizzle. Mostly cloudy.6 mph70%30.18 "HgN/A
2:20 AM41 °FMostly cloudy.1 mph66%30.18 "HgN/A
1:50 AM41 °FMostly cloudy.1 mph61%30.18 "HgN/A
1:20 AM41 °FMostly cloudy.2 mph66%30.18 "HgN/A
12:50 AM41 °FMostly cloudy.5 mph66%30.18 "HgN/A
12:20 AM43 °FMostly cloudy.5 mph57%30.18 "HgN/A
11:50 PM
Tue, Mar 3
41 °FClear.6 mph61%30.18 "Hg10 mi
11:20 PM43 °FMostly cloudy.6 mph57%30.18 "HgN/A
10:50 PM41 °FClear.5 mph61%30.18 "Hg10 mi
10:20 PM41 °FPartly cloudy.3 mph61%30.18 "HgN/A
9:50 PM41 °FClear.2 mph61%30.18 "Hg10 mi
9:20 PM41 °FClear.5 mph61%30.18 "Hg10 mi
8:20 PM46 °FClear.8 mph46%30.15 "Hg10 mi
7:50 PM46 °FClear.10 mph46%30.15 "Hg10 mi
7:20 PM46 °FClear.8 mph46%30.15 "Hg10 mi
6:50 PM45 °FClear.7 mph53%30.15 "Hg10 mi
6:20 PM43 °FPassing clouds.5 mph57%30.15 "HgN/A
5:50 PM45 °FSunny.3 mph49%30.15 "Hg10 mi
5:20 PM46 °FSunny.7 mph46%30.15 "Hg10 mi
4:50 PM48 °FSunny.6 mph40%30.15 "Hg10 mi
4:20 PM48 °FSunny.8 mph40%30.15 "Hg10 mi
3:50 PM50 °FPassing clouds.7 mph35%30.15 "HgN/A
3:20 PM48 °FPassing clouds.8 mph37%30.18 "HgN/A
2:50 PM50 °FPassing clouds.7 mph35%30.18 "HgN/A
2:20 PM48 °FPassing clouds.8 mph37%30.18 "HgN/A
1:50 PM48 °FPassing clouds.7 mph34%30.18 "HgN/A
1:20 PM48 °FPassing clouds.6 mph40%30.21 "HgN/A
12:50 PM46 °FPassing clouds.8 mph40%30.21 "HgN/A
12:20 PM46 °FSunny.6 mph40%30.24 "Hg10 mi
11:50 AM46 °FCool.3 mph40%30.24 "HgN/A
11:20 AM45 °FPassing clouds.7 mph46%30.24 "HgN/A
10:50 AM45 °FSunny.7 mph46%30.24 "Hg10 mi
10:20 AM43 °FSunny.8 mph53%30.24 "Hg10 mi
9:50 AM41 °FSunny.6 mph57%30.24 "Hg10 mi
9:20 AM39 °FSunny.8 mph61%30.24 "Hg10 mi
8:50 AM36 °FSunny.6 mph75%30.24 "Hg10 mi
8:20 AM34 °FSunny.3 mph81%30.24 "Hg10 mi
Weather by CustomWeather, © 2015

See weather overviewHow to use our weather pages